Regional Weather Roundup
Issued by NWS Little Rock, AR

Home | Current Version | Previous Version | Graphics & Text | Print | Product List | Glossary On
Versions: 1 2 3 4 5 6 7 8 9 10 11 12 13 14 15 16 17 18 19 20 21 22 23 24 25 26 27 28 29 30 31 32 33 34 35 36 37 38 39 40 41 42 43 44 45 46 47 48 49 50
000
ASUS44 KLZK 251305
RWRLZK

WEATHER ROUNDUP FOR ARKANSAS
NATIONAL WEATHER SERVICE LITTLE ROCK AR
800 AM CDT SAT MAR 25 2017

NOTE: "FAIR" INDICATES FEW OR NO CLOUDS BELOW 12,000 FEET WITH NO
SIGNIFICANT WEATHER AND/OR OBSTRUCTIONS TO VISIBILITY.

ARZ001-003-010-029-251400-
NORTHWEST ARKANSAS

CITY           SKY/WX    TMP DP  RH WIND       PRES   REMARKS
FAYETTEVILLE   CLOUDY    52  52 100 SW7       29.78R
FORT SMITH     MOCLDY    56  49  77 SW14      29.80R
HARRISON       CLOUDY    54  54 100 SE6       29.78S
BENTONVILLE    MOCLDY    54  50  87 CALM      29.77S
ROGERS         CLOUDY    53  52  96 NE5       29.78R
SILOAM SPGS    CLOUDY    54  48  82 NW9       29.78R
HIGHFILL       CLOUDY    54  52  93 SW8       29.77R
SPRINGDALE     CLOUDY    54  54 100 S5        29.79R
$$

ARZ004-005-016-251400-
NORTH CENTRAL ARKANSAS

CITY           SKY/WX    TMP DP  RH WIND       PRES   REMARKS
BATESVILLE     CLOUDY    57  55  94 SE10      29.85R
FLIPPIN        CLOUDY    55  48  76 SE6       29.78S
MTN HOME       CLOUDY    54  54 100 S9        29.80R
$$

ARZ040-041-251400-
WEST CENTRAL ARKANSAS

CITY           SKY/WX    TMP DP  RH WIND       PRES   REMARKS
MENA           CLOUDY    57  55  94 SW7       29.85R
MOUNT IDA      CLEAR     56  50  80 CALM      29.81R
$$

ARZ009-017-025-026-028-251400-
NORTHEAST ARKANSAS

CITY           SKY/WX    TMP DP  RH WIND       PRES   REMARKS
CORNING        LGT RAIN  55  55 100 E13       29.89F
JONESBORO      LGT RAIN  58  56  93 SE9       29.91R
NEWPORT        LGT RAIN  59  58  96 MISG      29.87S
WALNUT RIDGE   CLOUDY    55  52  88 E13G20    29.88R
BLYTHEVILLE    LGT RAIN  58  57  97 SE9       29.91R
$$

ARZ022-023-033-042-044-251400-
CENTRAL ARKANSAS

CITY           SKY/WX    TMP DP  RH WIND       PRES   REMARKS
LITTLE ROCK    PTSUNNY   59  59 100 S14       29.85R
N LITTLE ROCK    N/A     60  58  93 S9G20     29.84R
JACKSONVILLE   CLOUDY    61  59  91 S9        29.84R
CONWAY           N/A     63  59  88 S9G16     29.81R
SEARCY         CLOUDY    60  59  96 S15       29.87R
HOT SPRINGS    CLEAR     59  51  75 SW9       29.85R
RUSSELLVILLE   PTCLDY    59  57  93 S8G17     29.80R
CLINTON        CLOUDY    59  57  94 SE5       29.82R
$$

ARZ036-251400-
EAST ARKANSAS

CITY           SKY/WX    TMP DP  RH WIND       PRES   REMARKS
WEST MEMPHIS   CLOUDY    60  60 100 S14       29.92R
$$

ARZ050-053-066-070-073-251400-
SOUTHWEST ARKANSAS

CITY           SKY/WX    TMP DP  RH WIND       PRES   REMARKS
ARKADELPHIA    FAIR      59  52  77 SW12      29.89R
CAMDEN         PTSUNNY   59  55  88 SW5       29.90R
TEXARKANA      CLEAR     57  49  74 SW14      29.90R
EL DORADO      PTSUNNY   61  59  93 S7        29.91R
DE QUEEN       CLOUDY    56  51  84 SW7       29.87R
$$

ARZ056-057-069-251400-
SOUTHEAST ARKANSAS

CITY           SKY/WX    TMP DP  RH WIND       PRES   REMARKS
PINE BLUFF     CLOUDY    60  57  89 S13       29.89R
STUTTGART      CLOUDY    61  52  72 S18       29.89R
MONTICELLO       N/A    N/A N/A N/A MISG      29.91R

$$





USA.gov is the U.S. government's official web portal to all federal, state and local government web resources and services.